Regional Weather Roundup
Issued by NWS

Home | Current Version | Previous Version | Graphics & Text | Print | Product List | Glossary On
Versions: 1 2 3 4 5 6 7 8 9 10 11 12 13 14 15 16 17 18 19 20 21 22 23 24 25 26 27 28 29 30 31 32 33 34 35 36 37 38 39 40 41 42 43 44 45 46 47 48 49 50
000
ASUS45 KBOI 011310
RWRID

IDAHO REGIONAL WEATHER ROUNDUP
NATIONAL WEATHER SERVICE BOISE ID
700 AM MDT TUE SEP 01 2015

NOTE: "FAIR" INDICATES FEW OR NO CLOUDS BELOW 12000 FEET
WITH NO SIGNIFICANT WEATHER AND/OR OBSTRUCTIONS TO VISIBILITY

IDZ012-014-011400-
SOUTHWEST IDAHO


CITY           SKY/WX    TMP DP  RH WIND       PRES   REMARKS
BOISE          CLEAR     59  37  44 SE7       29.90S
CALDWELL       CLEAR     52  37  58 CALM      29.92S
MOUNTAIN HOME  CLEAR     51  37  58 E5        29.91S
$$

IDZ016-017-011400-
SOUTHCENTRAL IDAHO


CITY           SKY/WX    TMP DP  RH WIND       PRES   REMARKS
BURLEY         CLEAR     47  40  76 SW5       29.97R
JEROME         CLEAR     52  36  54 E8        29.97S
TWIN FALLS     CLEAR     56  30  37 S9        29.98R
$$

IDZ019>023-011400-
SOUTHEAST IDAHO


CITY           SKY/WX    TMP DP  RH WIND       PRES   REMARKS
IDAHO FALLS    CLEAR     42  37  82 N5        30.01F
POCATELLO      CLEAR     47  35  63 E3        30.00S
REXBURG        CLEAR     42  34  73 NE5       30.03S
$$

IDZ006-010-011-018-031-032-011400-
CENTRAL IDAHO MOUNTAINS


CITY           SKY/WX    TMP DP  RH WIND       PRES   REMARKS
MCCALL         CLEAR     40  34  79 CALM      30.01S
HAILEY         CLEAR     48  36  61 W9        30.06S
STANLEY          N/A     31  26  82 CALM      30.13S
SALMON         CLEAR     43  36  75 CALM      30.00R
CHALLIS        CLEAR     46  32  58 CALM      30.04R
$$

IDZ002-004-006-007-026-011400-
NORTHERN IDAHO


CITY           SKY/WX    TMP DP  RH WIND       PRES   REMARKS
LEWISTON       MOCLDY    56  45  66 CALM      29.91R
LOWELL           N/A     51  49  92 NW3       29.97R
COEUR D`ALENE  PTCLDY    54  45  71 S10       29.91S
MULLAN PASS    PTCLDY    43  40  89 VRB5      29.99S
$$



USA.gov is the U.S. government's official web portal to all federal, state and local government web resources and services.